Location: Reutlingen
(48.4911°N, 9.2587°E)
Time: 08:41:49
(UTC+02:00)

ISS - Visible Passes

Search period start: 24 September 2017 00:00
Search period end: 04 October 2017 00:00
Orbit: 401 x 407 km, 51.6° (Epoch: 24 September)

Date Brightness Start Highest point End Pass type
(mag) Time Alt. Az. Time Alt. Az. Time Alt. Az.
25 Sep -1.4 21:18:48 10° SW 21:19:31 15° SSW 21:19:31 15° SSW visible
26 Sep -2.5 20:27:01 10° SSW 20:29:40 23° SE 20:29:53 23° SE visible
27 Sep -3.1 21:10:17 10° WSW 21:12:44 46° SW 21:12:44 46° SW visible
28 Sep -3.4 20:18:07 10° SW 20:21:15 43° SSE 20:22:45 25° E visible
28 Sep -1.0 21:54:27 10° W 21:55:24 18° W 21:55:24 18° W visible
29 Sep -3.8 21:02:00 10° WSW 21:05:16 73° NNW 21:05:16 73° NNW visible
30 Sep -3.9 20:09:37 10° WSW 20:12:52 79° SSE 20:15:03 20° ENE visible
30 Sep -1.3 21:46:20 10° W 21:47:42 22° WNW 21:47:42 22° WNW visible
01 Oct -3.3 20:53:48 10° W 20:57:02 53° N 20:57:23 50° NNE visible
02 Oct -3.6 20:01:18 10° W 20:04:33 66° NNW 20:07:01 16° ENE visible
02 Oct -1.4 21:38:07 10° WNW 21:39:39 24° WNW 21:39:39 24° WNW visible
03 Oct -3.2 20:45:36 10° WNW 20:48:47 46° N 20:49:14 42° NNE visible
